Location: Unspecified
(0.0000°N, 0.0000°E)
Time: 00:12:12
(UTC+00:00)

S-56A Canister/Altair - All Passes

Search period start: 16 September 2019 00:00
Search period end: 26 September 2019 00:00
Orbit: 633 x 2499 km, 38.9° (Epoch: 14 September)

Date Brightness Start Highest point End Pass type
(mag) Time Alt. Az. Time Alt. Az. Time Alt. Az.
16 Sep - 06:06:03 10° S 06:11:17 14° SE 06:17:10 10° ESE daylight
16 Sep - 08:05:50 10° SSW 08:18:00 53° SE 08:32:32 10° ENE daylight
16 Sep - 10:10:57 10° WSW 10:24:50 59° NW 10:39:18 10° NE daylight
16 Sep - 12:23:09 10° WNW 12:32:41 19° NW 12:41:36 10° N daylight
16 Sep - 21:02:27 10° NW 21:07:44 74° NE 21:12:09 10° SE visible
17 Sep - 05:36:26 10° SSE 05:37:52 10° SE 05:39:20 10° SE visible
17 Sep - 07:33:10 10° SSW 07:44:30 46° SE 07:58:28 10° ENE daylight
17 Sep - 09:37:33 10° WSW 09:51:08 67° NW 10:06:03 10° NE daylight
17 Sep - 11:48:17 10° W 11:58:56 23° NW 12:09:08 10° N daylight
17 Sep - 20:29:36 10° NW 20:35:11 56° NE 20:39:38 10° ESE visible
17 Sep - 22:37:09 10° WSW 22:38:43 12° SW 22:40:16 10° SSW night (unlit)
18 Sep - 07:00:38 10° SSW 07:11:04 39° SE 07:24:14 10° ENE daylight
18 Sep - 09:04:19 10° SW 09:17:28 74° NW 09:32:40 10° NE daylight
18 Sep - 11:13:45 10° W 11:25:11 27° NW 11:36:26 10° NNE daylight
18 Sep - 19:56:44 10° NNW 20:02:35 44° NE 20:07:03 10° ESE visible
18 Sep - 22:03:11 10° W 22:06:05 16° SW 22:08:51 10° S night (unlit)
19 Sep - 06:28:15 10° SSW 06:37:43 33° SE 06:49:49 10° ENE daylight
19 Sep - 08:31:14 10° SW 08:43:50 83° NW 08:59:10 10° NE daylight
19 Sep - 10:39:32 10° W 10:51:25 30° NW 11:03:35 10° NNE daylight
19 Sep - 19:23:49 10° NNW 19:29:54 36° NE 19:34:27 10° ESE visible
19 Sep - 21:29:37 10° W 21:33:31 22° SW 21:37:00 10° S visible
20 Sep - 05:56:03 10° S 06:04:27 27° SE 06:15:11 10° E daylight
20 Sep - 07:58:17 10° SW 08:10:16 88° SE 08:25:32 10° NE daylight
20 Sep - 10:05:35 10° W 10:17:39 34° NW 10:30:34 10° NNE daylight
20 Sep - 18:50:51 10° NNW 18:57:07 31° NE 19:01:47 10° E visible
20 Sep - 20:56:11 10° WNW 21:01:00 29° SW 21:05:00 10° SSE visible
21 Sep - 05:24:02 10° S 05:31:15 22° SE 05:40:17 10° E visible
21 Sep - 07:25:29 10° SW 07:36:47 79° SE 07:51:46 10° NE daylight
21 Sep - 09:31:52 10° W 09:43:54 39° NW 09:57:26 10° NNE daylight
21 Sep - 11:48:22 10° NW 11:53:17 12° NNW 11:58:09 10° N daylight
21 Sep - 18:17:51 10° NNW 18:24:16 27° NNE 18:29:03 10° E visible
21 Sep - 20:22:48 10° WNW 20:28:29 40° SW 20:32:53 10° SSE visible
22 Sep - 04:52:21 10° S 04:58:06 17° SE 05:05:04 10° E visible
22 Sep - 06:52:48 10° SW 07:03:23 70° SE 07:17:54 10° NE daylight
22 Sep - 08:58:21 10° WSW 09:10:11 43° NW 09:24:10 10° NNE daylight
22 Sep - 11:12:29 10° NW 11:19:20 14° NNW 11:26:09 10° N daylight
22 Sep - 17:44:47 10° NNW 17:51:20 24° NNE 17:56:14 10° E daylight
22 Sep - 19:49:26 10° WNW 19:55:57 54° SW 20:00:43 10° SE visible
23 Sep - 04:21:17 10° SSE 04:25:00 13° SE 04:29:12 10° ESE visible
23 Sep - 06:20:15 10° SW 06:30:05 60° SE 06:43:55 10° ENE daylight
23 Sep - 08:25:02 10° WSW 08:36:31 48° NW 08:50:47 10° NNE daylight
23 Sep - 10:37:20 10° WNW 10:45:23 16° NNW 10:53:39 10° N daylight
23 Sep - 17:11:40 10° NNW 17:18:18 22° NNE 17:23:21 10° ENE daylight
23 Sep - 19:16:04 10° NW 19:23:23 71° SW 19:28:27 10° SE visible
24 Sep - 05:47:49 10° SSW 05:56:53 51° SE 06:09:48 10° ENE daylight
24 Sep - 07:51:53 10° WSW 08:02:55 54° NW 08:17:18 10° NE daylight
24 Sep - 10:02:40 10° WNW 10:11:28 19° NNW 10:20:50 10° N daylight
24 Sep - 16:38:31 10° NNW 16:45:10 20° NNE 16:50:20 10° ENE daylight
24 Sep - 18:42:41 10° NW 18:50:44 89° SW 18:56:09 10° SE visible
25 Sep - 05:15:29 10° SSW 05:23:48 42° SE 05:35:35 10° ENE visible
25 Sep - 07:18:53 10° WSW 07:29:24 61° NW 07:43:44 10° NE daylight
25 Sep - 09:28:21 10° WNW 09:37:37 21° NNW 09:47:50 10° NNE daylight
25 Sep - 16:05:19 10° NNW 16:11:57 18° NNE 16:17:12 10° ENE daylight
25 Sep - 18:09:16 10° NW 18:18:00 75° NE 18:23:45 10° SE visible
25 Sep - 20:18:39 10° WSW 20:21:27 13° SW 20:23:57 10° SSW visible
